Regional Weather Roundup
Issued by NWS Goodland, KS

Home | Current Version | Previous Version | Graphics & Text | Print | Product List | Glossary On
Versions: 1 2 3 4 5 6 7 8 9 10 11 12 13 14 15 16 17 18 19 20 21 22 23 24 25 26 27 28 29 30 31 32 33 34 35 36 37 38 39 40 41 42 43 44 45 46 47 48 49 50
000
ASUS43 KGLD 250859
RWRGLD

GOODLAND FORECAST AREA HOURLY WEATHER ROUNDUP
NATIONAL WEATHER SERVICE GOODLAND KS
200 AM MST SUN JAN 25 2015

...OFFICIAL OBSERVATIONS...

CITY           SKY/WX    TMP DP  RH WIND       PRES   REMARKS
GOODLAND KS    PTCLDY    38  26  62 NW25G33   30.04S
HILL CITY KS   CLEAR     41  28  60 NW15      29.95R
IMPERIAL NEB   CLEAR     39  25  57 NW23G33   30.00S
MCCOOK NEB     CLEAR     40  28  62 NW23G31   29.96R
AKRON CO       CLEAR     34  25  69 NW20      30.09S
BURLINGTON CO  CLEAR     37  26  64 NW18      30.08S
LIMON CO       CLOUDY    34  25  69 NW21      30.13F
$$

...UNOFFICIAL OBSERVATIONS...

CITY           SKY/WX    TMP DP  RH WIND       PRES   REMARKS
COLBY KS       CLEAR     37  30  75 W20G28    30.02R
GOVE KS          N/A     41  32  70 MISG        N/A
NORTON KS      CLEAR     37  27  65 W17G24    29.92R
SHARON SPRINGS   N/A     37  28  70 NW18        N/A
KIT CARSON CO    N/A     38  26  62 MISG        N/A
YUMA CO          N/A     35  27  71 NW20        N/A
$$


USA.gov is the U.S. government's official web portal to all federal, state and local government web resources and services.